Content
SEND FEEDBACK

Daily
Averages
Monthly
Summary
Thailand

RAYONG, THAILAND


Home > Asia > Thailand
Elevation: 16 feet     Latitude: 12 38N     Longitude: 101 21E

WEATHER
 
SELECT A DAY
Number of Records: 199,046;   Date Range: 7/1/96 - 8/30/14
 
SHARE

PRINT THIS DATA

[ ← Previous Day ]
WEATHER ALMANAC - JANUARY 20, 2014
[ Next Day → ]
[ °C ]   °F
Weather ElementAverageHighLow
Temperature73.5 °F86 °F (2:30 pm)60.8 °F (4:00 am)
Dewpoint53.5 °F63 °F (7:00 pm)44.6 °F (1:00 pm)
Humidity51.2 %77 % (4:00 am)23 % (2:30 pm)
Barometer30.01 in30.07 in (1:00 am)29.92 in (3:00 pm)
Wind Speed4.9 mph9.2 mph (10:00 am)
Weather ElementAverage
Visibility2.3 mi
Wind DirectionS (176.7 °)

Weather ElementTotal
Precipitation---
Cooling Degree Days8.4 (Base 65)
Growing Degree Days23.4 (Base 50)
Averaged from 49 records on January 20, 2014
WEATHER CONDITIONS BREAKOUT
WIND DIRECTION BREAKOUT
WEATHER BY HOUR - JANUARY 20, 2014
[ °C ]   °F
Local TimeTemperatureDewpointHumidityBarometerVisibilityWind DirectionWind SpeedGust SpeedPrecipitationEventsConditions
12:30 AM66.2 °F53.6 °F64 %30.04 in1.2 miNorth (350°)6.9 mphMist
1:00 AM68.0 °F57.0 °F58 %30.07 in4.0 miCalmMist
1:00 AM66.2 °F53.6 °F64 %30.04 in1.2 miNorth (350°)5.8 mphMist
1:30 AM64.4 °F53.6 °F68 %30.04 in1.2 miNNW (340°)6.9 mphMist
2:00 AM64.4 °F53.6 °F68 %30.01 in1.2 miNorth (350°)6.9 mphMist
4:00 AM60.8 °F53.6 °F77 %30.01 in1.2 miNNW (330°)6.9 mphMist
4:00 AM65.0 °F56.0 °F66 %30.01 in4.0 miCalmMist
4:30 AM60.8 °F51.8 °F72 %30.01 in1.2 miNNW (340°)5.8 mphMist
5:00 AM60.8 °F51.8 °F72 %30.01 in1.2 miNNW (340°)6.9 mphMist
5:30 AM60.8 °F51.8 °F72 %30.01 in1.2 miNNW (340°)5.8 mphMist
6:00 AM60.8 °F51.8 °F72 %30.01 in1.2 miNNW (340°)4.6 mphMist
7:00 AM62.6 °F51.8 °F68 %30.01 in0.9 miNorth (350°)6.9 mphMist
7:00 AM65.0 °F54.0 °F59 %30.02 in2.0 miNorth (350°)2.3 mphMist
7:30 AM64.4 °F51.8 °F64 %30.04 in0.9 miNorth (350°)6.9 mphHaze
8:00 AM66.2 °F51.8 °F60 %30.04 in1.2 miNNE (30°)4.6 mphHaze
8:30 AM69.8 °F51.8 °F53 %30.06 in1.2 miENE (60°)4.6 mphHaze
9:00 AM75.2 °F51.8 °F44 %30.06 in1.2 miNorth (10°)4.6 mphHaze
9:30 AM75.2 °F50.0 °F41 %30.06 in1.9 miNNW (340°)6.9 mphHaze
10:00 AM78.8 °F48.2 °F34 %30.06 in2.5 miNorth (350°)9.2 mphHaze
10:00 AM77.0 °F53.0 °F33 %30.07 in4.0 miNorth4.6 mphHaze
10:30 AM78.8 °F46.4 °F32 %30.06 in2.5 miNE (40°)6.9 mphHaze
11:00 AM82.4 °F48.2 °F30 %30.06 in2.5 miNorth (350°)9.2 mphHaze
11:30 AM82.4 °F46.4 °F28 %30.04 in2.5 miNNW (340°)9.2 mphHaze
12:00 PM82.4 °F46.4 °F28 %30.04 in2.5 miWNW (290°)6.9 mphHaze
12:30 PM82.4 °F46.4 °F28 %30.01 in2.5 miNNW (340°)9.2 mphHaze
1:00 PM84.0 °F56.0 °F27 %30.01 in4.0 miNorth (10°)2.3 mphHaze
1:00 PM82.4 °F44.6 °F26 %30.01 in3.1 miNorth (10°)6.9 mphHaze
1:30 PM84.2 °F46.4 °F27 %29.98 in3.1 miNorth (10°)4.6 mphHaze
2:00 PM84.2 °F44.6 °F25 %29.95 in3.1 miNorth (10°)9.2 mphHaze
2:30 PM86.0 °F44.6 °F23 %29.95 in3.1 miSouth (170°)4.6 mphHaze
3:00 PM84.2 °F50.0 °F30 %29.92 in3.1 miSouth (180°)6.9 mphHaze
3:30 PM84.2 °F53.6 °F35 %29.92 in3.1 miSouth (190°)6.9 mphHaze
4:00 PM82.0 °F59.0 °F36 %29.94 in4.0 miSSE (160°)2.3 mphHaze
4:00 PM82.4 °F57.2 °F42 %29.92 in2.5 miSouth (190°)9.2 mphHaze
4:30 PM82.4 °F53.6 °F37 %29.92 in2.5 miSouth (190°)4.6 mphHaze
5:00 PM80.6 °F57.2 °F45 %29.95 in2.5 miSSW (210°)3.5 mphHaze
5:30 PM78.8 °F57.2 °F47 %29.95 in2.5 miNE (40°)4.6 mphHaze
6:00 PM78.8 °F57.2 °F47 %29.95 in2.5 miNE (50°)4.6 mphHaze
6:30 PM77.0 °F57.2 °F50 %29.95 in2.5 miNorth (10°)2.3 mphHaze
7:00 PM76.0 °F63.0 °F56 %29.98 in4.0 miCalmHaze
7:00 PM73.4 °F59.0 °F61 %29.98 in1.9 miNorth (10°)2.3 mphHaze
7:30 PM73.4 °F60.8 °F65 %29.98 in1.9 miNorth (10°)2.3 mphHaze
8:00 PM71.6 °F60.8 °F69 %30.01 in1.9 miNNE (30°)2.3 mphMist
8:30 PM71.6 °F59.0 °F64 %30.01 in1.9 miNE (50°)2.3 mphMist
9:00 PM69.8 °F59.0 °F68 %30.04 in1.9 miNE (40°)2.3 mphMist
9:30 PM69.8 °F59.0 °F68 %30.04 in1.9 miNNE (20°)2.3 mphMist
10:00 PM70.0 °F59.0 °F60 %30.03 in4.0 miCalmMist
10:00 PM68.0 °F59.0 °F73 %30.04 in1.9 miNE (40°)2.3 mphMist
10:30 PM68.0 °F59.0 °F73 %30.04 in1.9 miNE (40°)2.3 mphMist
Hourly data recorded from VTBU, located miles away from Rayong, Thailand







STORIES FROM OUR PARTNERS